Starlink 6096

operational
NORAD ID: 56103 Int'l Des: 2023-046 Owner: SPXS Country: US Constellation: starlink
LEOCIRCULAR

Über Starlink 6096

Beschreibung wird geladen...

Live-Position

3D-Globus wird geladen...

Nächste Überflüge

Höhenverlauf

Altitude vs Time

uPlot chart will show altitude changes over time

Zweizeiliger Elementsatz

1 56103U 23046L 25258.66615808 .00000841 00000-0 77349-4 0 9999
2 56103 43.0046 29.9969 0001624 274.6218 85.4439 15.02537284135730
Epoch: 15. Sept. 2025 • Age: 18 hours

Aktueller Status

Höhe 561.0 km
Geschwindigkeit 7.59 km/s
Subsatellitenpunkt 33.24°N, 71.9°W
Startdatum 29. März 2023
Alter 2.4 years
Typ internet

Technische Details

Klassifizierung Payload
Masse 305.00 kg
Trockenmasse 290.00 kg
Gesamtmasse 305.00 kg
Länge 0.20 m
Durchmesser 2.80 m
Spannweite 9.00 m
Form Box + pan
Hersteller SPXS
Bus-Typ Starlink
Phasenstatus In Orbit
Besitzer/Staat SPXS/US

Große Konstellationen

Loading constellations...